This is the latest recevied weather packets stored in our database for station/object KE8RXN. If no packets are shown the sender has not sent any weather packets the latest 10 day(s).
| Time | Temp. | Humidity | Pressure | Rain* | Wind** | Luminosity | Snow |
|---|---|---|---|---|---|---|---|
| 1777838182 | 10.56° C | 77% | 1013.7 hPa | 0 mm | - | 58 W/m² | - |
| 1777837878 | 10.56° C | 75% | 1013.8 hPa | 0 mm | - | 39 W/m² | - |
| 1777837576 | 11.11° C | 73% | 1013.8 hPa | 0 mm | - | 49 W/m² | - |
| 1777837270 | 11.11° C | 70% | 1013.7 hPa | 0 mm | - | 49 W/m² | - |
| 1777836968 | 11.67° C | 68% | 1013.4 hPa | 0 mm | - | 54 W/m² | - |
| 1777836663 | 11.67° C | 66% | 1013.7 hPa | 0 mm | - | 47 W/m² | - |
| 1777836359 | 12.22° C | 63% | 1013.6 hPa | 0 mm | - | 51 W/m² | - |
| 1777836055 | 12.78° C | 61% | 1013.8 hPa | 0 mm | - | 89 W/m² | - |
| 1777835752 | 13.89° C | 59% | 1013.8 hPa | 0 mm | - | 212 W/m² | - |
| 1777835449 | 13.89° C | 57% | 1013.9 hPa | 0 mm | - | 765 W/m² | - |
| 1777835145 | 13.89° C | 59% | 1013.8 hPa | 0 mm | - | 282 W/m² | - |
| 1777834843 | 14.44° C | 57% | 1013.8 hPa | 0 mm | - | 287 W/m² | - |
| 1777834538 | 14.44° C | 56% | 1013.7 hPa | 0 mm | - | 368 W/m² | - |
| 1777834233 | 15° C | 55% | 1013.9 hPa | 0 mm | - | 404 W/m² | - |
| 1777833929 | 15° C | 54% | 1013.7 hPa | 0 mm | - | 254 W/m² | - |
| 1777833626 | 15° C | 53% | 1013.8 hPa | 0 mm | - | 676 W/m² | - |
| 1777833323 | 15° C | 54% | 1013.7 hPa | 0 mm | - | 672 W/m² | - |
| 1777833020 | 14.44° C | 55% | 1013.9 hPa | 0 mm | - | 671 W/m² | - |
| 1777832718 | 14.44° C | 53% | 1014 hPa | 0 mm | - | 700 W/m² | - |
| 1777832416 | 15° C | 53% | 1013.8 hPa | 0 mm | - | 691 W/m² | - |
| 1777832113 | 15.56° C | 52% | 1013.9 hPa | 0 mm | - | 671 W/m² | - |
| 1777831808 | 15° C | 52% | 1014 hPa | 0 mm | - | 679 W/m² | - |
| 1777831506 | 14.44° C | 52% | 1014.2 hPa | 0 mm | - | 677 W/m² | - |
| 1777831203 | 15° C | 52% | 1014 hPa | 0 mm | - | 684 W/m² | - |
| 1777830901 | 14.44° C | 53% | 1014.1 hPa | 0 mm | - | 711 W/m² | - |
* Rain latest hour (hover to see other rain measurements)
** Current wind speed in m/s (hover to see current wind gust speed)